Location: 22
(39.7117°N, 89.5929°W)
Time: 01:11:59
(UTC-05:00)

A-11 Canister half - Pass Details

Date: 10 June 2023
Orbit: 1524 x 1684 km, 47.3° (Epoch: 29 September)

Event Time Altitude Azimuth Distance (km) Brightness Sun altitude
Rises 02:06:40 0° 299° (WNW) 4,691 11.7 -25.3°
Reaches altitude 10° 02:09:41 10° 298° (WNW) 3,718 11.1 -25.1°
Maximum altitude 02:19:06 82° 213° (SSW) 1,587 8.9 -24.5°
Drops below altitude 10° 02:28:49 10° 127° (SE) 3,825 10.9 -23.8°
Sets 02:31:58 0° 127° (SE) 4,831 11.5 -23.5°
